When you browse on this site, cookies collect data to enhance your experience and personalize the content and advertising you see.
Visit our Privacy Policy to learn more. By continuing to use the site, you agree to this use of cookies and data.
  • In Netherlands
  • List of Countries
  • For 7 days
  • Water Temperature
  • Satellite Maps
  • Weather Map
  • Weather Widgets
  • user-avatar
    Login

    Hourly Weather Stepnoy Mayak

    Today, 19 May, Sunday

    Time Temperature Precipitation Wind Pressure Humidity
    00:00 +17°C° 0 mm 5 mps 752 mmHg 65%
    01:00 +17°C° 0 mm 5 mps 751 mmHg 63%
    02:00 +16°C° 0 mm 5 mps 751 mmHg 60%
    03:00 +15°C° 0 mm 5 mps 751 mmHg 48%
    04:00 +15°C° 0 mm 5 mps 751 mmHg 50%
    05:00 +15°C° 0 mm 5 mps 751 mmHg 53%
    06:00 +14°C° 0 mm 5 mps 751 mmHg 56%
    07:00 +16°C° 0 mm 5 mps 752 mmHg 55%
    08:00 +19°C° 0 mm 5 mps 752 mmHg 54%
    09:00 +22°C° 0 mm 5 mps 752 mmHg 52%
    10:00 +23°C° 0 mm 5 mps 752 mmHg 51%
    11:00 +25°C° 0 mm 5 mps 752 mmHg 50%
    12:00 +26°C° 0 mm 4 mps 752 mmHg 50%
    13:00 +26°C° 0 mm 4 mps 752 mmHg 49%
    14:00 +26°C° 0 mm 4 mps 752 mmHg 48%
    15:00 +26°C° 0 mm 4 mps 752 mmHg 47%
    16:00 +26°C° 0 mm 4 mps 752 mmHg 49%
    17:00 +25°C° 0 mm 4 mps 752 mmHg 52%
    18:00 +23°C° 0 mm 4 mps 752 mmHg 54%
    19:00 +21°C° 0 mm 4 mps 752 mmHg 54%
    20:00 +20°C° 0 mm 4 mps 753 mmHg 55%
    21:00 +18°C° 0 mm 3 mps 753 mmHg 55%
    22:00 +18°C° 0 mm 4 mps 753 mmHg 57%
    23:00 +17°C° 0 mm 4 mps 754 mmHg 60%

    Tomorrow, 20 May, Monday

    Time Temperature Precipitation Wind Pressure Humidity
    00:00 +15°C° 0 mm 4 mps 754 mmHg 62%
    01:00 +15°C° 0 mm 4 mps 754 mmHg 63%
    02:00 +14°C° 0 mm 4 mps 754 mmHg 65%
    03:00 +14°C° 0 mm 4 mps 755 mmHg 66%
    04:00 +14°C° 0 mm 4 mps 755 mmHg 68%
    05:00 +14°C° 0 mm 4 mps 755 mmHg 70%
    06:00 +14°C° 0 mm 4 mps 755 mmHg 72%
    07:00 +17°C° 0 mm 4 mps 756 mmHg 67%
    08:00 +19°C° 0 mm 4 mps 756 mmHg 62%
    09:00 +21°C° 0 mm 4 mps 757 mmHg 57%
    10:00 +22°C° 0 mm 4 mps 757 mmHg 54%
    11:00 +23°C° 0 mm 4 mps 757 mmHg 50%
    12:00 +23°C° 0 mm 4 mps 757 mmHg 46%
    13:00 +23°C° 0 mm 4 mps 757 mmHg 46%
    14:00 +23°C° 0 mm 5 mps 757 mmHg 46%
    15:00 +23°C° 0 mm 5 mps 757 mmHg 45%
    16:00 +23°C° 0 mm 5 mps 757 mmHg 48%
    17:00 +22°C° 0 mm 4 mps 757 mmHg 51%
    18:00 +21°C° 0 mm 4 mps 757 mmHg 53%
    19:00 +19°C° 0 mm 4 mps 757 mmHg 54%
    20:00 +17°C° 0 mm 4 mps 757 mmHg 55%
    21:00 +14°C° 0 mm 3 mps 758 mmHg 55%
    22:00 +14°C° 0 mm 3 mps 758 mmHg 55%
    23:00 +14°C° 0 mm 3 mps 758 mmHg 56%

    Day after tomorrow, 21 May, Tuesday

    Time Temperature Precipitation Wind Pressure Humidity
    00:00 +13°C° 0 mm 3 mps 758 mmHg 56%
    01:00 +13°C° 0 mm 3 mps 758 mmHg 58%
    02:00 +12°C° 0 mm 3 mps 758 mmHg 60%
    03:00 +12°C° 0 mm 2 mps 759 mmHg 62%
    04:00 +13°C° 0 mm 2 mps 759 mmHg 63%
    05:00 +13°C° 0 mm 2 mps 759 mmHg 65%
    06:00 +13°C° 0 mm 2 mps 759 mmHg 66%
    07:00 +16°C° 0 mm 3 mps 759 mmHg 60%
    08:00 +18°C° 0 mm 3 mps 760 mmHg 53%
    09:00 +20°C° 0 mm 3 mps 760 mmHg 47%
    10:00 +21°C° 0 mm 3 mps 760 mmHg 45%
    11:00 +22°C° 0 mm 4 mps 760 mmHg 43%
    12:00 +23°C° 0 mm 4 mps 760 mmHg 41%
    13:00 +23°C° 0 mm 4 mps 759 mmHg 41%
    14:00 +23°C° 0 mm 4 mps 759 mmHg 41%
    15:00 +25°C° 0 mm 4 mps 759 mmHg 41%
    16:00 +23°C° 0 mm 4 mps 758 mmHg 45%
    17:00 +22°C° 0 mm 3 mps 758 mmHg 50%
    18:00 +22°C° 0 mm 3 mps 758 mmHg 54%
    19:00 +20°C° 0 mm 3 mps 758 mmHg 55%
    20:00 +18°C° 0 mm 4 mps 758 mmHg 56%
    21:00 +15°C° 0 mm 4 mps 758 mmHg 57%
    22:00 +15°C° 0 mm 4 mps 758 mmHg 55%
    23:00 +14°C° 0 mm 4 mps 758 mmHg 53%

    22 May, Wednesday

    Time Temperature Precipitation Wind Pressure Humidity
    00:00 +14°C° 0 mm 4 mps 757 mmHg 51%
    01:00 +13°C° 0 mm 4 mps 757 mmHg 55%
    02:00 +13°C° 0 mm 4 mps 757 mmHg 59%
    03:00 +12°C° 0 mm 4 mps 757 mmHg 63%
    04:00 +12°C° 0 mm 4 mps 757 mmHg 66%
    05:00 +12°C° 0 mm 4 mps 757 mmHg 68%
    06:00 +12°C° 0 mm 4 mps 757 mmHg 71%
    07:00 +14°C° 0 mm 5 mps 757 mmHg 66%
    08:00 +15°C° 0 mm 6 mps 756 mmHg 60%
    09:00 +17°C° 0 mm 6 mps 756 mmHg 55%
    10:00 +19°C° 0 mm 6 mps 756 mmHg 51%
    11:00 +20°C° 0 mm 6 mps 756 mmHg 47%
    12:00 +21°C° 0 mm 6 mps 755 mmHg 43%
    13:00 +22°C° 0 mm 6 mps 755 mmHg 44%
    14:00 +22°C° 0 mm 6 mps 755 mmHg 46%
    15:00 +22°C° 0 mm 5 mps 754 mmHg 48%
    16:00 +21°C° 0 mm 5 mps 754 mmHg 58%
    17:00 +20°C° 0 mm 4 mps 754 mmHg 68%
    18:00 +19°C° 0 mm 3 mps 753 mmHg 78%
    19:00 +18°C° 0 mm 3 mps 753 mmHg 83%
    20:00 +17°C° 0 mm 3 mps 753 mmHg 88%
    21:00 +16°C° 0 mm 3 mps 753 mmHg 93%
    22:00 +16°C° 0.2 mm 3 mps 753 mmHg 93%
    23:00 +16°C° 0.2 mm 3 mps 753 mmHg 94%

    23 May, Thursday

    Time Temperature Precipitation Wind Pressure Humidity
    00:00 +16°C° 0.2 mm 3 mps 752 mmHg 94%
    01:00 +14°C° 0.8 mm 3 mps 752 mmHg 95%
    02:00 +14°C° 0.8 mm 3 mps 752 mmHg 95%
    03:00 +14°C° 0.8 mm 3 mps 752 mmHg 96%
    04:00 +14°C° 0.2 mm 3 mps 752 mmHg 95%
    05:00 +15°C° 0.2 mm 4 mps 752 mmHg 95%
    06:00 +15°C° 0.2 mm 4 mps 752 mmHg 94%
    07:00 +15°C° 0.1 mm 4 mps 752 mmHg 92%
    08:00 +17°C° 0.1 mm 4 mps 752 mmHg 89%
    09:00 +18°C° 0.1 mm 4 mps 752 mmHg 87%
    10:00 +20°C° 0 mm 4 mps 751 mmHg 77%
    11:00 +22°C° 0 mm 5 mps 751 mmHg 66%
    12:00 +24°C° 0 mm 6 mps 751 mmHg 56%
    13:00 +24°C° 0 mm 6 mps 751 mmHg 54%
    14:00 +24°C° 0 mm 6 mps 751 mmHg 53%
    15:00 +26°C° 0 mm 7 mps 750 mmHg 51%
    16:00 +24°C° 0 mm 6 mps 750 mmHg 55%
    17:00 +23°C° 0 mm 5 mps 750 mmHg 58%
    18:00 +23°C° 0 mm 5 mps 750 mmHg 62%
    19:00 +21°C° 0 mm 4 mps 750 mmHg 67%
    20:00 +19°C° 0 mm 4 mps 751 mmHg 71%
    21:00 +18°C° 0 mm 4 mps 751 mmHg 76%
    22:00 +17°C° 0 mm 4 mps 751 mmHg 77%
    23:00 +17°C° 0 mm 4 mps 751 mmHg 78%

    24 May, Friday

    Time Temperature Precipitation Wind Pressure Humidity
    00:00 +17°C° 0 mm 4 mps 751 mmHg 78%
    01:00 +15°C° 0 mm 4 mps 751 mmHg 80%
    02:00 +15°C° 0 mm 4 mps 751 mmHg 82%
    03:00 +15°C° 0 mm 4 mps 751 mmHg 84%
    04:00 +15°C° 0 mm 4 mps 751 mmHg 85%
    05:00 +15°C° 0 mm 5 mps 751 mmHg 85%
    06:00 +15°C° 0 mm 5 mps 751 mmHg 86%
    07:00 +17°C° 0.1 mm 5 mps 751 mmHg 80%
    08:00 +20°C° 0.1 mm 5 mps 751 mmHg 74%
    09:00 +21°C° 0.1 mm 5 mps 751 mmHg 68%
    10:00 +22°C° 0.9 mm 6 mps 751 mmHg 66%
    11:00 +23°C° 0.9 mm 6 mps 751 mmHg 63%
    12:00 +24°C° 0.9 mm 6 mps 751 mmHg 61%
    13:00 +24°C° 0.4 mm 6 mps 751 mmHg 58%
    14:00 +26°C° 0.4 mm 6 mps 751 mmHg 56%
    15:00 +27°C° 0.4 mm 5 mps 750 mmHg 54%
    16:00 +26°C° 0 mm 4 mps 750 mmHg 56%
    17:00 +26°C° 0 mm 4 mps 750 mmHg 59%
    18:00 +26°C° 0 mm 3 mps 750 mmHg 62%
    19:00 +24°C° 0 mm 2 mps 750 mmHg 66%
    20:00 +21°C° 0 mm 2 mps 750 mmHg 69%
    21:00 +19°C° 0 mm 2 mps 750 mmHg 73%
    22:00 +20°C° 0 mm 1 mps 750 mmHg 75%
    23:00 +19°C° 0 mm 1 mps 750 mmHg 77%
    Show more